Regional Weather Roundup
Issued by NWS

Home | Current Version | Previous Version | Text Only | Print | Product List | Glossary Off
Versions: 1 2 3 4 5 6 7 8 9 10 11 12 13 14 15 16 17 18 19 20 21 22 23 24 25 26 27 28 29 30 31 32 33 34 35 36 37 38 39 40 41 42 43 44 45 46 47 48 49 50

000
ASUS45 KBOI 311010
RWRID

IDAHO REGIONAL WEATHER ROUNDUP
NATIONAL WEATHER SERVICE BOISE ID
400 AM MDT FRI JUL 31 2015

NOTE: "FAIR" INDICATES FEW OR NO CLOUDS BELOW 12000 FEET
WITH NO SIGNIFICANT WEATHER AND/OR OBSTRUCTIONS TO VISIBILITY

IDZ012-014-311100-
SOUTHWEST IDAHO


CITY           SKY/WX    TMP DP  RH WIND       PRES   REMARKS
BOISE          PTCLDY    69  37  30 CALM      30.13R
CALDWELL       PTCLDY    57  43  58 SE3       30.12S
MOUNTAIN HOME  CLEAR     59  32  36 E5        30.14R
$$

IDZ016-017-311100-
SOUTHCENTRAL IDAHO


CITY           SKY/WX    TMP DP  RH WIND       PRES   REMARKS
BURLEY         PTCLDY    52  41  66 CALM      30.21S
JEROME         PTCLDY    60  35  39 CALM      30.21F
TWIN FALLS     PTCLDY    70  25  18 S8        30.19S
$$

IDZ019>023-311100-
SOUTHEAST IDAHO


CITY           SKY/WX    TMP DP  RH WIND       PRES   REMARKS
IDAHO FALLS    CLEAR     49  42  77 VRB3      30.29S
POCATELLO      CLEAR     50  37  61 N3        30.26S
REXBURG        CLEAR     50  42  74 NE6       30.30S
$$

IDZ006-010-011-018-031-032-311100-
CENTRAL IDAHO MOUNTAINS


CITY           SKY/WX    TMP DP  RH WIND       PRES   REMARKS
MCCALL         CLEAR     51  40  65 CALM      30.30R
HAILEY         CLEAR     55  34  44 NW10      30.34R
STANLEY          N/A     39  30  70 S3        30.44R
SALMON         CLEAR     52  45  76 CALM      30.28R
CHALLIS        CLEAR     55  38  52 CALM      30.33R
$$

IDZ002-004-006-007-026-311100-
NORTHERN IDAHO


CITY           SKY/WX    TMP DP  RH WIND       PRES   REMARKS
LEWISTON       PTCLDY    69  34  27 SE5       30.06R
LOWELL           N/A     58  50  75 CALM      30.17R
COEUR D`ALENE  CLEAR     57  43  58 E6        30.11S
MULLAN PASS    CLEAR     67  28  23 S5        30.36S
$$



USA.gov is the U.S. government's official web portal to all federal, state and local government web resources and services.